[[{"header":{"parameterUnit":"m.s-1","parameterCategory":1,"la1":30.2991,"la2":30.254,"lo1":-89.0895,"lo2":-89.0444,"dy":0.0017,"dx":0.0017,"nx":28,"ny":28,"refTime":"2024-03-30T03:00:00:Z","depth":0,"parameterNumber":2,"parameterNumberName":"U-component_of_WINDS"},"data":[0,0,0,0,0,0,0,0,0,0,0,0,0,0,0,0,0,0,0,0,0,0,0,0,0,0,0,0,0,0,0,0,0,0,0,0,0,0,0,0,0,0,0,0,0,0,0,0,0,0,0,0,0,0,0,0,0,0,0.2411,0.2411,0,0.2439,0.2439,0.2439,0.2441,0.2441,0.244,0.244,0.2467,0.2468,0.2469,0,0,0,0,0,0,0,0,0,0,0,0,0,0.2357,0.2358,0.2411,0.2411,0.2412,0.2439,0.2439,0.2439,0.2441,0.2441,0.244,0.244,0.2467,0.2468,0.2469,0,0,0,0,0,0,0,0,0,0,0,0,0,0.2382,0.2358,0.2411,0.2416,0.2416,0.2439,0.2439,0.244,0.2441,0.244,0.244,0.244,0.2466,0.2468,0.2469,0.2488,0,0,0.2474,0.2475,0,0,0,0,0,0,0,0,0.2381,0.2384,0.2415,0.2415,0.2416,0.2436,0.243,0.2456,0.2441,0.2432,0.244,0.2439,0.2457,0.2459,0.2465,0.2489,0.2491,0.2474,0.2475,0.2476,0.2476,0,0,0,0,0,0,0,0.2379,0.2383,0.2422,0.2415,0.2416,0.2416,0.2419,0.2435,0.2447,0.2432,0.2433,0.2436,0.2457,0.2464,0.2466,0.2491,0.2474,0.2475,0.2476,0.2477,0.2531,0.2531,0,0,0,0,0,0,0.2377,0.2381,0.2421,0.2423,0.2397,0.2417,0.242,0.243,0.2446,0.2448,0.2436,0.2436,0.2462,0.2464,0.2467,0.249,0.2476,0.2477,0.2478,0.253,0.2531,0.2532,0,0,0,0,0,0,0.2375,0.238,0.242,0.2402,0.2407,0.2419,0.2429,0.2431,0.2438,0.2449,0.2451,0.2441,0.2461,0.2465,0.2483,0.249,0.2478,0.2479,0.253,0.2531,0.2531,0.2535,0,0,0,0,0,0,0.2374,0.238,0.2387,0.2402,0.2408,0.2436,0.243,0.2432,0.244,0.244,0.2454,0.2456,0.2461,0.248,0.2484,0.2492,0.248,0.2529,0.253,0.2531,0.2534,0.2536,0.2537,0,0,0,0,0,0.2372,0.2387,0.2388,0.2393,0.2418,0.2436,0.2439,0.2445,0.2441,0.2448,0.2456,0.2456,0.2489,0.2482,0.2487,0.2495,0.2529,0.253,0.2531,0.2534,0.2536,0.2537,0,0,0,0,0,0,0.2373,0.2389,0.239,0.2411,0.2422,0.2436,0.2446,0.2447,0.246,0.2459,0.2465,0.2468,0.2486,0.2492,0.2484,0.2514,0.2508,0.251,0.2509,0.2511,0.2512,0.251,0.2482,0,0,0,0,0,0.2375,0.2389,0.2403,0.242,0.2425,0.2435,0.2443,0.2446,0.2458,0.2463,0.2471,0.2482,0.2495,0.2503,0.2516,0.2535,0.2538,0.2543,0.2545,0.2546,0.2548,0.2557,0.256,0.2535,0.2535,0.2535,0,0,0.2381,0.2392,0.24,0.242,0.2429,0.2443,0.2439,0.2453,0.2463,0.2465,0.2482,0.2489,0.2501,0.252,0.2528,0.2526,0.2555,0.2548,0.2548,0.2549,0.2559,0.2561,0.2563,0.2536,0.2536,0.2536,0,0,0.2398,0.2408,0.2422,0.2432,0.2446,0.2452,0.2455,0.2469,0.2474,0.2492,0.2493,0.2504,0.2526,0.2535,0.2542,0.2562,0.2562,0.2565,0.2573,0.2582,0.2584,0.2586,0.2592,0.2594,0.2567,0.2567,0.2567,0,0.2402,0.2423,0.243,0.2444,0.2453,0.2455,0.247,0.2478,0.2495,0.2501,0.2498,0.2525,0.2534,0.2554,0.2559,0.2565,0.2568,0.2564,0.2584,0.2585,0.2587,0.2593,0.2595,0.2567,0.2567,0.2567,0.2567,0,0.2428,0.2442,0.2453,0.2469,0.2479,0.2493,0.2501,0.251,0.2513,0.2519,0.2536,0.2547,0.2561,0.2566,0.2569,0.2586,0.2584,0.2582,0.2577,0.259,0.2595,0.2597,0.2568,0.2568,0.2568,0.2568,0,0,0.2446,0.2466,0.247,0.2477,0.2492,0.2503,0.2517,0.2531,0.2538,0.255,0.2561,0.258,0.2578,0.2586,0.259,0.2598,0.2612,0.2595,0.2596,0.2597,0.2631,0.2632,0.2634,0.2612,0.2613,0.2613,0.263,0,0.2464,0.2489,0.2495,0.2517,0.253,0.2532,0.2544,0.2555,0.2561,0.2572,0.2578,0.2591,0.2588,0.2593,0.2602,0.2608,0.2619,0.2607,0.2622,0.2622,0.2618,0.2637,0.2638,0.2653,0.2632,0.2632,0.2633,0,0.2488,0.25,0.2523,0.2536,0.2542,0.2553,0.2566,0.2577,0.2588,0.2592,0.2601,0.2604,0.2617,0.2611,0.263,0.2622,0.2629,0.2633,0.2634,0.2635,0.2628,0.2638,0.2659,0.266,0.2636,0.2636,0.2636,0,0.2497,0.252,0.2536,0.2543,0.2559,0.2566,0.2573,0.2584,0.2592,0.2603,0.2608,0.2621,0.2628,0.2637,0.2643,0.2638,0.2661,0.2655,0.2663,0.2663,0.2668,0.2667,0.2689,0.2673,0.2673,0.2673,0.2673,0,0.2516,0.253,0.2541,0.2551,0.2566,0.2573,0.2587,0.2594,0.2604,0.2615,0.2617,0.2627,0.2634,0.2645,0.2649,0.2664,0.2667,0.267,0.2671,0.2669,0.2669,0.2673,0.2672,0.2673,0.2673,0.2673,0.2673,0,0.2529,0.2537,0.2555,0.2569,0.2572,0.2583,0.2594,0.2604,0.261,0.2623,0.2627,0.2636,0.2649,0.2655,0.2671,0.2674,0.269,0.2691,0.2686,0.2686,0.2694,0.2693,0.2718,0.2721,0.2704,0.2704,0.2704,0,0.254,0.2551,0.2566,0.2573,0.258,0.2593,0.2601,0.2608,0.2616,0.2629,0.2637,0.265,0.2661,0.2681,0.2688,0.27,0.2701,0.2709,0.2702,0.27,0.27,0.2699,0.27,0.271,0.271,0.271,0.271,0,0.2559,0.2562,0.2574,0.2587,0.2597,0.2608,0.2618,0.2624,0.2632,0.2641,0.2655,0.2663,0.2679,0.2691,0.2704,0.271,0.2711,0.2712,0.2714,0.2713,0.2709,0.271,0.2688,0.2711,0.2711,0.2711,0.2711,0.2711,0.2571,0.258,0.2592,0.2605,0.2613,0.2623,0.2632,0.264,0.2651,0.2665,0.2668,0.2682,0.2692,0.2709,0.2715,0.2726,0.2724,0.2728,0.2728,0.2729,0.2729,0.2708,0.2728,0.2728,0.2728,0.2728,0.2728,0,0.2588,0.2596,0.2608,0.2623,0.2633,0.2634,0.2645,0.2653,0.2665,0.2675,0.2686,0.2701,0.2713,0.2721,0.2733,0.274,0.274,0.2743,0.2742,0.2743,0.273,0.2727,0.2742,0.2742,0.2742,0.2742,0.2742,0.2742,0.2599,0.2615,0.2619,0.2639,0.2646,0.266,0.2666,0.2675,0.2683,0.2699,0.271,0.2715,0.2724,0.2737,0.2748,0.275,0.2754,0.2756,0.2758,0.2746,0.2744,0.2743,0.2739,0.2757,0.2757,0.277,0.277,0.277]},{"header":{"parameterUnit":"m.s-1","parameterCategory":1,"la1":30.2991,"la2":30.254,"lo1":-89.0895,"lo2":-89.0444,"dy":0.0017,"dx":0.0017,"nx":28,"ny":28,"refTime":"2024-03-30T03:00:00:Z","depth":0,"parameterNumber":3,"parameterNumberName":"V-component_of_WINDS"},"data":[0,0,0,0,0,0,0,0,0,0,0,0,0,0,0,0,0,0,0,0,0,0,0,0,0,0,0,0,0,0,0,0,0,0,0,0,0,0,0,0,0,0,0,0,0,0,0,0,0,0,0,0,0,0,0,0,0,0,3.175,3.1751,0,3.1852,3.1853,3.1854,3.1832,3.1831,3.1829,3.1827,3.1926,3.1931,3.1935,0,0,0,0,0,0,0,0,0,0,0,0,0,3.1533,3.1537,3.175,3.1752,3.1753,3.1852,3.1853,3.1855,3.1833,3.183,3.1828,3.1826,3.1925,3.193,3.1935,0,0,0,0,0,0,0,0,0,0,0,0,0,3.163,3.1538,3.175,3.1754,3.1755,3.1852,3.1853,3.1855,3.1833,3.183,3.1828,3.1825,3.1923,3.193,3.1936,3.2033,0,0,3.1956,3.1959,0,0,0,0,0,0,0,0,3.1624,3.1638,3.1752,3.1754,3.1756,3.1827,3.1813,3.1915,3.1834,3.1804,3.1827,3.1824,3.1895,3.1904,3.1929,3.2038,3.2042,3.1957,3.1961,3.1964,3.1966,0,0,0,0,0,0,0,3.1618,3.1633,3.179,3.1754,3.1756,3.1749,3.176,3.1832,3.1864,3.1806,3.1805,3.1817,3.1896,3.1923,3.1931,3.2044,3.1957,3.1963,3.1967,3.1969,3.2237,3.224,0,0,0,0,0,0,3.161,3.1628,3.1787,3.1793,3.1682,3.1755,3.1767,3.1807,3.1863,3.1869,3.182,3.1816,3.1913,3.1924,3.1935,3.2052,3.1964,3.197,3.1974,3.2234,3.2238,3.2241,0,0,0,0,0,0,3.1606,3.1625,3.1783,3.171,3.173,3.1762,3.1806,3.181,3.1837,3.1873,3.1878,3.1842,3.1911,3.1925,3.2009,3.2055,3.1973,3.1979,3.223,3.2235,3.224,3.2288,0,0,0,0,0,0,3.1599,3.1623,3.1661,3.1712,3.1734,3.1857,3.1809,3.1814,3.1849,3.1845,3.1896,3.1901,3.191,3.2,3.2016,3.2063,3.1984,3.2226,3.2233,3.2238,3.2282,3.2293,3.2303,0,0,0,0,0,3.1592,3.167,3.1663,3.1683,3.1783,3.186,3.1873,3.1883,3.1853,3.1891,3.1914,3.1899,3.2048,3.2008,3.2026,3.2076,3.2223,3.2231,3.2238,3.2277,3.2291,3.2303,0,0,0,0,0,0,3.1622,3.1676,3.167,3.1767,3.1809,3.1856,3.1905,3.1897,3.1948,3.1942,3.195,3.1962,3.2047,3.207,3.2025,3.2173,3.2131,3.2142,3.2155,3.2168,3.2179,3.2171,3.199,0,0,0,0,0,3.1641,3.1701,3.1744,3.1825,3.1847,3.1872,3.1906,3.191,3.1954,3.1971,3.2,3.2042,3.2098,3.2134,3.2188,3.2285,3.2295,3.2328,3.2339,3.2347,3.2356,3.2409,3.2424,3.2265,3.2265,3.2264,0,0,3.1679,3.1716,3.1752,3.1832,3.1866,3.1926,3.1887,3.1953,3.1997,3.1981,3.2062,3.2085,3.2132,3.2223,3.2265,3.2245,3.2403,3.2356,3.2363,3.2367,3.2418,3.2433,3.2447,3.2269,3.2269,3.2268,0,0,3.1779,3.1813,3.1885,3.1919,3.1971,3.1987,3.2004,3.2053,3.2068,3.215,3.2139,3.2191,3.2288,3.2321,3.2351,3.2465,3.2453,3.2482,3.2536,3.2588,3.26,3.2611,3.2651,3.2665,3.2491,3.2491,3.2491,0,3.1819,3.1911,3.1922,3.1989,3.2024,3.2013,3.2085,3.2117,3.2183,3.2207,3.2184,3.2305,3.2336,3.2434,3.2462,3.2487,3.2506,3.2476,3.2598,3.2609,3.262,3.2658,3.2673,3.2494,3.2494,3.2493,3.2493,0,3.1957,3.2021,3.2072,3.2138,3.2179,3.2248,3.2268,3.2307,3.2308,3.2327,3.241,3.2447,3.2508,3.2531,3.2532,3.263,3.2616,3.2596,3.2554,3.2638,3.2674,3.2688,3.2499,3.2497,3.2497,3.2496,0,0,3.2079,3.215,3.2169,3.2198,3.2255,3.2304,3.2371,3.2433,3.2466,3.2512,3.2568,3.265,3.2632,3.2666,3.267,3.2715,3.2802,3.2689,3.269,3.2708,3.2912,3.2927,3.2944,3.2795,3.2798,3.28,3.2908,0,3.2183,3.2305,3.2317,3.2425,3.2484,3.2475,3.2534,3.2574,3.2594,3.2645,3.2665,3.2723,3.2695,3.2715,3.2759,3.2782,3.2843,3.2775,3.2846,3.2849,3.2834,3.2963,3.2979,3.3079,3.2922,3.2924,3.2926,0,3.2322,3.2373,3.2488,3.2536,3.2561,3.2614,3.2671,3.2721,3.2766,3.2776,3.2815,3.2813,3.2882,3.2838,3.2932,3.2886,3.2915,3.2931,3.2935,3.2942,3.2892,3.2972,3.3111,3.3126,3.2948,3.2947,3.2945,0,3.2398,3.2496,3.2577,3.2603,3.2662,3.2699,3.2725,3.2767,3.2803,3.2852,3.2875,3.2931,3.2962,3.3005,3.3018,3.2985,3.3111,3.3069,3.3121,3.3121,3.3148,3.3146,3.3293,3.3168,3.3168,3.3167,3.3167,0,3.2514,3.2584,3.2613,3.2663,3.2741,3.2753,3.283,3.2853,3.2891,3.2945,3.294,3.299,3.3005,3.3057,3.3067,3.3143,3.3157,3.3167,3.3169,3.3167,3.3166,3.3186,3.318,3.3171,3.3171,3.317,3.3169,0,3.2612,3.2634,3.2722,3.2771,3.2785,3.284,3.2881,3.2929,3.2947,3.3015,3.3031,3.306,3.3121,3.3139,3.3212,3.3219,3.3308,3.3304,3.3293,3.3293,3.3345,3.3339,3.351,3.3532,3.3393,3.3394,3.3395,0,3.2684,3.2738,3.2793,3.2829,3.2857,3.2916,3.2953,3.2967,3.3005,3.3061,3.3101,3.3162,3.3212,3.331,3.3336,3.3392,3.3388,3.3444,3.3396,3.3393,3.3389,3.3385,3.339,3.3453,3.3454,3.3455,3.3456,0,3.2809,3.2818,3.2872,3.2931,3.2976,3.3022,3.3066,3.3096,3.3116,3.3159,3.3223,3.3261,3.3337,3.3397,3.3453,3.3478,3.3471,3.3471,3.3486,3.3485,3.3477,3.3482,3.3317,3.3467,3.3466,3.3465,3.3465,3.3464,3.2896,3.2944,3.2991,3.3051,3.3087,3.3128,3.3176,3.3201,3.3254,3.3318,3.3322,3.3391,3.3434,3.351,3.3538,3.3591,3.3574,3.3596,3.3601,3.3606,3.3611,3.3469,3.3601,3.3601,3.36,3.36,3.36,0,3.3021,3.3051,3.3107,3.317,3.3217,3.3208,3.3257,3.3296,3.3357,3.3399,3.3448,3.3521,3.3579,3.3611,3.3668,3.3705,3.3703,3.3719,3.3716,3.3722,3.3622,3.3603,3.372,3.372,3.372,3.372,3.372,3.372,3.3092,3.3172,3.3186,3.3283,3.3312,3.338,3.3409,3.3447,3.348,3.3562,3.3611,3.3632,3.3669,3.373,3.3783,3.379,3.3812,3.383,3.3836,3.3742,3.3729,3.3718,3.37,3.3835,3.3835,3.3932,3.3933,3.3933]}]]